Terug naar catalogus

CRRES DEB

CANISTER

LostHEO
NORAD 21590·DEBRIS·🇺🇸 United States

Gelanceerd Jul 25, 1990 vanaf Cape Canaveral Space Force Station

Loading…

Volgende Passages (komende 24 uur)

TLE

VerouderdSource: Space-Track

Epoch: Apr 30, 2026, 22:01 UTC

1 21590U 90065F   26120.91739433  .00000365  00000-0  73657-3 0  9992
2 21590  20.6033 357.8366 6938116 253.5079  24.9563  2.68221463128370

Volg CRRES DEB in realtime met AllMySat

Download on the App Store